• In Deutschland
  • Länderverzeichnis
  • Für 7 Tage
  • Wassertemperatur
  • Satellitenkarten
  • Wetterkarte
  • Widgets
  • user-avatar
    Anmelden

    Stündliche Wetter Valledupar

    Heute, 26 September, Dienstag

    Zeit Temperatur Niederschläge Wind Luftdruck Luftfeuchtigkeit
    00:00 +28°C° 0,2 mm 1 m/S 742 mmHg 74%
    01:00 +28°C° 0,2 mm 1 m/S 741 mmHg 74%
    02:00 +28°C° 0,6 mm 1 m/S 741 mmHg 75%
    03:00 +27°C° 0,6 mm 1 m/S 741 mmHg 76%
    04:00 +27°C° 0,6 mm 1 m/S 741 mmHg 76%
    05:00 +28°C° 0,7 mm 1 m/S 742 mmHg 75%
    06:00 +28°C° 0,7 mm 1 m/S 742 mmHg 73%
    07:00 +27°C° 0,7 mm 0 m/S 742 mmHg 71%
    08:00 +31°C° 0,4 mm 1 m/S 743 mmHg 65%
    09:00 +32°C° 0,4 mm 1 m/S 743 mmHg 59%
    10:00 +34°C° 0,4 mm 1 m/S 743 mmHg 54%
    11:00 +34°C° 0,4 mm 1 m/S 743 mmHg 52%
    12:00 +35°C° 0,4 mm 1 m/S 742 mmHg 51%
    13:00 +35°C° 0,4 mm 1 m/S 742 mmHg 49%
    14:00 +35°C° 0,9 mm 1 m/S 741 mmHg 54%
    15:00 +34°C° 0,9 mm 1 m/S 741 mmHg 58%
    16:00 +33°C° 0,9 mm 1 m/S 740 mmHg 62%
    17:00 +31°C° 1 mm 1 m/S 741 mmHg 66%
    18:00 +30°C° 1 mm 1 m/S 741 mmHg 71%
    19:00 +28°C° 1 mm 1 m/S 741 mmHg 75%
    20:00 +28°C° 0,2 mm 1 m/S 742 mmHg 73%
    21:00 +28°C° 0,2 mm 1 m/S 742 mmHg 71%
    22:00 +28°C° 0,2 mm 1 m/S 743 mmHg 70%
    23:00 +28°C° 0,2 mm 1 m/S 742 mmHg 69%

    Morgen, 27 September, Mittwoch

    Zeit Temperatur Niederschläge Wind Luftdruck Luftfeuchtigkeit
    00:00 +27°C° 0,2 mm 1 m/S 742 mmHg 69%
    01:00 +27°C° 0,2 mm 1 m/S 742 mmHg 68%
    02:00 +27°C° 0,5 mm 1 m/S 742 mmHg 69%
    03:00 +27°C° 0,5 mm 1 m/S 741 mmHg 69%
    04:00 +27°C° 0,5 mm 1 m/S 741 mmHg 69%
    05:00 +28°C° 0,5 mm 1 m/S 742 mmHg 69%
    06:00 +28°C° 0,5 mm 1 m/S 742 mmHg 68%
    07:00 +29°C° 0,5 mm 1 m/S 742 mmHg 67%
    08:00 +31°C° 0,2 mm 1 m/S 743 mmHg 63%
    09:00 +32°C° 0,2 mm 1 m/S 743 mmHg 58%
    10:00 +34°C° 0,2 mm 1 m/S 743 mmHg 53%
    11:00 +35°C° 0,2 mm 1 m/S 743 mmHg 51%
    12:00 +35°C° 0,2 mm 1 m/S 742 mmHg 50%
    13:00 +36°C° 0,2 mm 1 m/S 741 mmHg 49%
    14:00 +35°C° 0,6 mm 1 m/S 740 mmHg 52%
    15:00 +34°C° 0,6 mm 1 m/S 740 mmHg 55%
    16:00 +33°C° 0,6 mm 1 m/S 739 mmHg 59%
    17:00 +32°C° 0,6 mm 1 m/S 740 mmHg 64%
    18:00 +30°C° 0,6 mm 1 m/S 741 mmHg 69%
    19:00 +29°C° 0,6 mm 1 m/S 741 mmHg 74%
    20:00 +29°C° 0,3 mm 1 m/S 742 mmHg 75%
    21:00 +29°C° 0,3 mm 1 m/S 742 mmHg 76%
    22:00 +29°C° 0,3 mm 1 m/S 743 mmHg 77%
    23:00 +28°C° 0,4 mm 1 m/S 742 mmHg 80%

    übermorgen, 28 September, Donnerstag

    Zeit Temperatur Niederschläge Wind Luftdruck Luftfeuchtigkeit
    00:00 +28°C° 0,4 mm 1 m/S 742 mmHg 82%
    01:00 +28°C° 0,4 mm 1 m/S 742 mmHg 84%
    02:00 +28°C° 0,7 mm 1 m/S 741 mmHg 84%
    03:00 +27°C° 0,7 mm 1 m/S 741 mmHg 84%
    04:00 +27°C° 0,7 mm 1 m/S 741 mmHg 84%
    05:00 +28°C° 1 mm 1 m/S 741 mmHg 82%
    06:00 +28°C° 1 mm 1 m/S 742 mmHg 80%
    07:00 +29°C° 1 mm 1 m/S 742 mmHg 78%
    08:00 +30°C° 1 mm 1 m/S 743 mmHg 73%
    09:00 +31°C° 1 mm 1 m/S 743 mmHg 68%
    10:00 +33°C° 1 mm 1 m/S 743 mmHg 63%
    11:00 +33°C° 0,7 mm 1 m/S 742 mmHg 60%
    12:00 +34°C° 0,7 mm 1 m/S 742 mmHg 57%
    13:00 +35°C° 0,7 mm 1 m/S 741 mmHg 54%
    14:00 +34°C° 0,9 mm 1 m/S 740 mmHg 57%
    15:00 +33°C° 0,9 mm 1 m/S 740 mmHg 59%
    16:00 +33°C° 0,9 mm 1 m/S 739 mmHg 62%
    17:00 +31°C° 0,9 mm 1 m/S 740 mmHg 66%
    18:00 +30°C° 0,9 mm 1 m/S 741 mmHg 70%
    19:00 +29°C° 0,9 mm 1 m/S 741 mmHg 74%
    20:00 +29°C° 0,6 mm 1 m/S 742 mmHg 75%
    21:00 +29°C° 0,6 mm 1 m/S 742 mmHg 76%
    22:00 +28°C° 0,6 mm 1 m/S 742 mmHg 77%
    23:00 +28°C° 0,5 mm 1 m/S 742 mmHg 78%

    29 September, Freitag

    Zeit Temperatur Niederschläge Wind Luftdruck Luftfeuchtigkeit
    00:00 +28°C° 0,5 mm 1 m/S 742 mmHg 79%
    01:00 +28°C° 0,5 mm 1 m/S 741 mmHg 80%
    02:00 +28°C° 0,4 mm 1 m/S 741 mmHg 81%
    03:00 +28°C° 0,4 mm 1 m/S 741 mmHg 81%
    04:00 +27°C° 0,4 mm 1 m/S 741 mmHg 81%
    05:00 +26°C° 0,3 mm 0 m/S 742 mmHg 79%
    06:00 +27°C° 0,3 mm 0 m/S 742 mmHg 76%
    07:00 +27°C° 0,3 mm 0 m/S 743 mmHg 73%
    08:00 +29°C° 0,2 mm 0 m/S 743 mmHg 66%
    09:00 +33°C° 0,2 mm 1 m/S 743 mmHg 59%
    10:00 +34°C° 0,2 mm 1 m/S 743 mmHg 51%
    11:00 +35°C° 0,3 mm 1 m/S 742 mmHg 51%
    12:00 +35°C° 0,3 mm 1 m/S 742 mmHg 51%
    13:00 +35°C° 0,3 mm 1 m/S 741 mmHg 51%
    14:00 +34°C° 0,5 mm 1 m/S 741 mmHg 54%
    15:00 +33°C° 0,5 mm 1 m/S 740 mmHg 58%
    16:00 +32°C° 0,5 mm 1 m/S 740 mmHg 62%
    17:00 +31°C° 0,4 mm 1 m/S 740 mmHg 65%
    18:00 +30°C° 0,4 mm 1 m/S 741 mmHg 68%
    19:00 +29°C° 0,4 mm 1 m/S 741 mmHg 72%
    20:00 +29°C° 0,2 mm 1 m/S 742 mmHg 71%
    21:00 +28°C° 0,2 mm 1 m/S 742 mmHg 71%
    22:00 +28°C° 0,2 mm 1 m/S 742 mmHg 71%
    23:00 +28°C° 0,4 mm 1 m/S 742 mmHg 71%

    30 September, Samstag

    Zeit Temperatur Niederschläge Wind Luftdruck Luftfeuchtigkeit
    00:00 +28°C° 0,4 mm 1 m/S 742 mmHg 72%
    01:00 +28°C° 0,4 mm 1 m/S 741 mmHg 73%
    02:00 +27°C° 0,7 mm 1 m/S 741 mmHg 74%
    03:00 +27°C° 0,7 mm 1 m/S 742 mmHg 75%
    04:00 +27°C° 0,7 mm 1 m/S 742 mmHg 76%
    05:00 +27°C° 0,6 mm 1 m/S 742 mmHg 75%
    06:00 +28°C° 0,6 mm 1 m/S 743 mmHg 75%
    07:00 +28°C° 0,6 mm 1 m/S 743 mmHg 74%
    08:00 +29°C° 0,6 mm 1 m/S 743 mmHg 68%
    09:00 +31°C° 0,6 mm 1 m/S 743 mmHg 62%
    10:00 +32°C° 0,6 mm 1 m/S 743 mmHg 56%
    11:00 +33°C° 0,7 mm 1 m/S 743 mmHg 56%
    12:00 +33°C° 0,7 mm 1 m/S 742 mmHg 56%
    13:00 +33°C° 0,7 mm 1 m/S 741 mmHg 56%
    14:00 +32°C° 0,7 mm 1 m/S 741 mmHg 59%
    15:00 +32°C° 0,7 mm 1 m/S 740 mmHg 62%
    16:00 +31°C° 0,7 mm 1 m/S 740 mmHg 65%
    17:00 +30°C° 0,6 mm 1 m/S 740 mmHg 67%
    18:00 +29°C° 0,6 mm 1 m/S 741 mmHg 69%
    19:00 +28°C° 0,6 mm 1 m/S 741 mmHg 71%
    20:00 +28°C° 0,6 mm 1 m/S 742 mmHg 72%
    21:00 +28°C° 0,6 mm 1 m/S 742 mmHg 72%
    22:00 +27°C° 0,6 mm 1 m/S 742 mmHg 73%
    23:00 +27°C° 0,7 mm 1 m/S 742 mmHg 73%

    1 Oktober, Sonntag

    Zeit Temperatur Niederschläge Wind Luftdruck Luftfeuchtigkeit
    00:00 +27°C° 0,7 mm 1 m/S 741 mmHg 74%
    01:00 +27°C° 0,7 mm 1 m/S 741 mmHg 75%
    02:00 +27°C° 1 mm 1 m/S 741 mmHg 75%
    03:00 +27°C° 1 mm 1 m/S 741 mmHg 76%
    04:00 +27°C° 1 mm 1 m/S 741 mmHg 77%
    05:00 +27°C° 0,9 mm 1 m/S 741 mmHg 76%
    06:00 +27°C° 0,9 mm 1 m/S 742 mmHg 75%
    07:00 +28°C° 0,9 mm 1 m/S 742 mmHg 74%
    08:00 +29°C° 0,8 mm 1 m/S 742 mmHg 68%
    09:00 +31°C° 0,8 mm 1 m/S 742 mmHg 63%
    10:00 +32°C° 0,8 mm 1 m/S 742 mmHg 57%
    11:00 +33°C° 0,7 mm 1 m/S 742 mmHg 55%
    12:00 +33°C° 0,7 mm 1 m/S 741 mmHg 54%
    13:00 +34°C° 0,7 mm 1 m/S 741 mmHg 53%
    14:00 +33°C° 0,5 mm 1 m/S 740 mmHg 56%
    15:00 +32°C° 0,5 mm 1 m/S 740 mmHg 58%
    16:00 +32°C° 0,5 mm 1 m/S 740 mmHg 61%
    17:00 +30°C° 0,7 mm 1 m/S 740 mmHg 65%
    18:00 +29°C° 0,7 mm 1 m/S 741 mmHg 69%
    19:00 +26°C° 0,7 mm 0 m/S 741 mmHg 73%
    20:00 +27°C° 1 mm 1 m/S 741 mmHg 74%
    21:00 +27°C° 1 mm 1 m/S 742 mmHg 75%
    22:00 +27°C° 1 mm 1 m/S 742 mmHg 76%
    23:00 +27°C° 1,1 mm 1 m/S 742 mmHg 77%
    Mehr zeigen